Regional Weather Roundup
Issued by NWS

Home | Current Version | Previous Version | Graphics & Text | Print | Product List | Glossary Off
Versions: 1 2 3 4 5 6 7 8 9 10 11 12 13 14 15 16 17 18 19 20 21 22 23 24 25 26 27 28 29 30 31 32 33 34 35 36 37 38 39 40 41 42 43 44 45 46 47 48 49 50

000
ASUS43 KMKX 261621
RWRWI

WISCONSIN REGIONAL WEATHER ROUNDUP
NATIONAL WEATHER SERVICE MILWAUKEE/SULLIVAN WI
1100 AM CDT THU MAR 26 2015

NOTE: "FAIR" INDICATES FEW OR NO CLOUDS BELOW 12,000 FEET WITH NO
SIGNIFICANT WEATHER AND/OR OBSTRUCTIONS TO VISIBILITY.

WIZ001-002-006>008-014>016-023>028-261700-
NORTHWEST WISCONSIN

CITY           SKY/WX    TMP DP  RH WIND       PRES   REMARKS
SUPERIOR ARPT  CLOUDY    27  16  61 NW13G18   30.13S WCI  17
ASHLAND        CLOUDY    26  13  57 N13       30.11R WCI  15
HAYWARD        CLOUDY    25  12  58 N13       30.07R WCI  14
SIREN          CLOUDY    28  15  58 N10       30.10S WCI  19
CUMBERLAND     CLOUDY    28  14  54 N15       30.07R WCI  17
RICE LAKE      CLOUDY    28  16  61 NW12G17   30.09R WCI  18
CHETEK         CLOUDY    28  19  66 NW8G16    30.07R WCI  20
LADYSMITH      CLOUDY    27  17  64 N10G16    30.05S WCI  18
EAU CLAIRE     CLOUDY    32  16  51 N13G20    30.05R WCI  22
MENOMONIE      CLOUDY    32  17  54 NW14      30.07R WCI  22
NEW RICHMOND   CLOUDY    31  17  56 N13G20    30.10R WCI  21
OSCEOLA        CLOUDY    31  17  55 N10G21    30.13S WCI  22
$$

WIZ003>005-009-010-017-018-261700-
NORTH CENTRAL WISCONSIN

CITY           SKY/WX    TMP DP  RH WIND       PRES   REMARKS
MANITOWISH WTR LGT SNOW  21  14  76 N10       29.98R WCI   9
ARBOR VITAE    LGT SNOW  22  15  72 N16       29.97R WCI   9
WOODRUFF       LGT SNOW  22  15  72 N16       29.97R WCI   9
RHINELANDER    CLOUDY    24  14  65 NW12      29.96R WCI  13
EAGLE RIVER    FLURRIES  22  13  67 N16       29.95R WCI   8
LAND O LAKES   LGT SNOW  21  15  78 N13G18    29.96R WCI   9
PHILLIPS       FLURRIES  22  13  68 N8        30.00S WCI  13
TOMAHAWK       CLOUDY    25  13  61 NW13G21   29.98S WCI  13
MEDFORD        FLURRIES  25  16  70 NW14      29.99R WCI  13
MERRILL        CLOUDY    26  16  65 N13G18    29.98R WCI  15
$$

WIZ029-030-035-036-043>047-261700-
CENTRAL WISCONSIN

CITY           SKY/WX    TMP DP  RH WIND       PRES   REMARKS
WAUSAU         FLURRIES  27  17  66 N12G21    29.97R WCI  17
MOSINEE        CLOUDY    28  19  69 NW18      29.98R WCI  16
MARSHFIELD     CLOUDY    29  20  69 N18       29.99R WCI  16
STEVENS POINT  CLOUDY    28  17  63 N12G17    29.98S WCI  18
WAUPACA        CLOUDY    34  21  59 NW9       29.97S WCI  27
WAUTOMA        CLOUDY    33  20  59 NW10G18   29.99R WCI  25
WISC RAPIDS    CLOUDY    31  19  61 NW10G22   30.00R WCI  22
CAMP DOUGLAS   CLOUDY    32  21  64 NW12G20   30.01R WCI  23
$$

WIZ011>013-019>022-031-037>040-048>050-261700-
NORTHEAST WISCONSIN

CITY           SKY/WX    TMP DP  RH WIND       PRES   REMARKS
ANTIGO         CLOUDY    25  17  72 NW13G22   29.94S WCI  14
SHAWANO        CLOUDY    33  21  60 NW7       29.96R WCI  27
OCONTO         CLOUDY    32  19  59 NW10      29.94R WCI  24
STURGEON BAY   CLOUDY    32  19  59 NW15G21   29.95R WCI  22
GREEN BAY      CLOUDY    33  23  66 NW10      29.95R WCI  25
MANITOWOC      LGT RAIN  34  23  64 NW15      29.94R WCI  24
APPLETON       CLOUDY    32  19  59 NW13      29.96R WCI  22
CLINTONVILLE   CLOUDY    32  19  59 NW15      29.96R WCI  22
OSHKOSH        CLOUDY    33  21  61 NW16G25   29.96R WCI  23
$$

WIZ032>034-041-042-053>061-261700-
SOUTHWEST WISCONSIN

CITY           SKY/WX    TMP DP  RH WIND       PRES   REMARKS
LA CROSSE      CLOUDY    34  20  56 N14       30.07R WCI  25
SPARTA         CLOUDY    32  19  58 NW10G20   30.05S WCI  24
VIROQUA        CLOUDY    32  23  70 NW14      30.02S WCI  22
BOSCOBEL       CLOUDY    35  21  56 NW9       30.05S WCI  28
PRAIRIE DU CHI CLOUDY    33  20  57 NW13G21   30.08R WCI  24
PLATTEVILLE    CLOUDY    33  23  66 W14       30.03S WCI  24
$$

WIZ056-057-062-063-064-067-068-261700-
SOUTH CENTRAL WISCONSIN

CITY           SKY/WX    TMP DP  RH WIND       PRES   REMARKS
REEDSBURG      CLOUDY    34  21  59 NW15      30.00R WCI  24
BARABOO/DELLS  CLOUDY    33  19  57 NW15G21   29.99S WCI  23
LONE ROCK      CLOUDY    36  20  52 NW10      30.02S WCI  28
MINERAL POINT  CLOUDY    34  23  64 NW12      30.01S WCI  25
MADISON        CLOUDY    35  20  54 NW13G20   29.99R WCI  26
MIDDLETON      CLOUDY    36  21  55 NW15G21   30.00R WCI  26
WATERTOWN      CLOUDY    36  22  58 NW13      29.97R WCI  27
MONROE         CLOUDY    36  25  64 NW12      30.00R WCI  27
JANESVILLE     CLOUDY    37  25  60 NW12      29.99S WCI  30
$$

WIZ051-052-058>065-066-070>072-261700-
SOUTHEAST WISCONSIN

CITY           SKY/WX    TMP DP  RH WIND       PRES   REMARKS
MILWAUKEE      CLOUDY    38  19  46 NW15      29.97R WCI  29
WAUKESHA       CLOUDY    34  21  60 NW16      29.97R WCI  23
MILWAUKEE/TIMM CLOUDY    37  19  48 NW16      29.97R WCI  28
RACINE         CLOUDY    38  22  52 W8        29.98R WCI  32
BURLINGTON     CLOUDY    36  22  57 W10       29.97S WCI  28
KENOSHA        CLOUDY    39  25  57 W14       29.96S WCI  31
FOND DU LAC    CLOUDY    34  22  61 NW15      29.96R WCI  24
SHEBOYGAN      CLOUDY    35  23  61 NW13      29.94R WCI  26
WEST BEND      CLOUDY    34  21  60 NW13      29.95S WCI  25
JUNEAU         CLOUDY    34  21  60 NW9G16    29.97S WCI  26
$$

LSZ147-162-261700-
LAKE SUPERIOR

STATION/POSITION TIME  TEMP    WIND        PRES    WAVE
                       AIR SEA DIR/SP/G            HT/PER
                 (UTC) (F)     (DEG/KT/KT) (MB)    (FT/S)
DEVILS ISLAND    1600   20     350/ 18/ 20 1021.5R
PORT WING        1540   23      10/  8/ 13 1020.7R
SAXON HARBOR     1400   24     360/ 19/ 23 1018.3
$$

LMZ867-665-643>646-261700-
LAKE MICHIGAN

STATION/POSITION TIME  TEMP    WIND        PRES    WAVE
                       AIR SEA DIR/SP/G            HT/PER
                 (UTC) (F)     (DEG/KT/KT) (MB)    (FT/S)
NORTHPORT PIER   1604   29     330/ 23     1013.2R
SISTER BAY       1532   31     350/ 22/ 25   N/A
KEWAUNEE LAKESHO 1500   34     310/ 11/ 16 1012.3R
SHEBOYGAN LAKESH 1600   36     290/ 12/ 15 1014.7R
PORT WASHINGTON  1500   37     310/  9/ 13 1014.6F
MILWAUKEE LAKESH 1600   37     310/ 12/ 19   N/A
KENOSHA   LAKESH 1600   37     310/ 10/ 13 1014.9S
$$

TC  - TEMPERATURE IN CELSIUS
VSB - VISIBILITY IN STATUTE MILES
WCI - WIND CHILL INDEX
HX  - HEAT INDEX




USA.gov is the U.S. government's official web portal to all federal, state and local government web resources and services.